^^
Station Historical Data
Daily Summary for January 30, 2018 Units:  English    Metric   Both
« Previous Day
Next Day »
Daily Weekly Monthly Yearly Custom
  High: Low: Average:
Temperature: TemperatureF °F 60.3 °F 78.6 °F
Dew Point: DewpointF °F 17.2 °F 31.5 °F
Humidity: Humidity% 7% 20%
Wind Speed: WindSpeedMPHmph 0.0mph 1.7mph
Wind Gust: WindSpeedGustMPHmph - -
Wind- - SSW
Pressure: PressureIn in 29.51 in -
Precipitation: 0.00 in    
Historical Graphs
 
 
Tabular Data for January 30, 2018
Time Temperature Dew Point Pressure Wind Wind Speed Wind Gust Humidity Rainfall Rate (Hourly) solar Conditions
TemperatureF °F DewpointF °F PressureIn in Calm     Humidity% HourlyPrecipIn in SolarRadiationWatts/m^2 W/m2 Conditions
00:04 71.8 °F 30.9 °F 29.70 in Calm     22% 0.00 in 0.0 W/m2
00:09 71.4 °F 30.6 °F 29.70 in Calm     22% 0.00 in 0.0 W/m2
00:14 71.2 °F 31.5 °F 29.70 in Calm     23% 0.00 in 0.0 W/m2
00:20 70.7 °F 31.1 °F 29.70 in Calm     23% 0.00 in 0.0 W/m2
00:25 70.3 °F 30.7 °F 29.70 in Calm     23% 0.00 in 0.0 W/m2
00:30 70.0 °F 30.6 °F 29.70 in Calm   2.0 mph 23% 0.00 in 0.0 W/m2
00:36 69.6 °F 31.3 °F 29.70 in Calm   2.0 mph 24% 0.00 in 0.0 W/m2
00:41 69.3 °F 30.9 °F 29.70 in Calm     24% 0.00 in 0.0 W/m2
00:46 69.1 °F 30.7 °F 29.69 in Calm   2.0 mph 24% 0.00 in 0.0 W/m2
00:51 68.5 °F 31.3 °F 29.69 in Calm   1.0 mph 25% 0.00 in 0.0 W/m2
00:56 68.4 °F 31.1 °F 29.69 in Calm     25% 0.00 in 0.0 W/m2
01:01 68.2 °F 31.1 °F 29.69 in Calm   1.0 mph 25% 0.00 in 0.0 W/m2
01:06 67.8 °F 31.6 °F 29.69 in Calm     26% 0.00 in 0.0 W/m2
01:11 67.6 °F 31.5 °F 29.69 in Calm   2.0 mph 26% 0.00 in 0.0 W/m2
01:16 67.5 °F 31.5 °F 29.70 in Calm   1.0 mph 26% 0.00 in 0.0 W/m2
01:21 67.5 °F 31.5 °F 29.70 in Calm   2.0 mph 26% 0.00 in 0.0 W/m2
01:26 67.5 °F 31.5 °F 29.70 in Calm   2.0 mph 26% 0.00 in 0.0 W/m2
01:31 67.5 °F 31.5 °F 29.69 in Calm   1.0 mph 26% 0.00 in 0.0 W/m2
01:36 67.5 °F 31.5 °F 29.69 in East 0.9 mph 5.0 mph 26% 0.00 in 0.0 W/m2
01:42 67.5 °F 31.5 °F 29.69 in Calm   4.0 mph 26% 0.00 in 0.0 W/m2
01:47 67.5 °F 30.4 °F 29.70 in NE 0.9 mph 4.0 mph 25% 0.00 in 0.0 W/m2
01:52 67.3 °F 30.2 °F 29.70 in NE 2.9 mph 5.0 mph 25% 0.00 in 0.0 W/m2
01:58 67.3 °F 30.2 °F 29.69 in Calm   6.0 mph 25% 0.00 in 0.0 W/m2
02:03 67.5 °F 31.5 °F 29.70 in Calm   1.0 mph 26% 0.00 in 0.0 W/m2
02:08 67.5 °F 31.5 °F 29.69 in ENE 2.0 mph 3.0 mph 26% 0.00 in 0.0 W/m2
02:13 67.3 °F 31.3 °F 29.69 in East 0.9 mph 2.0 mph 26% 0.00 in 0.0 W/m2
02:18 67.3 °F 31.3 °F 29.69 in Calm   3.0 mph 26% 0.00 in 0.0 W/m2
02:24 67.1 °F 31.1 °F 29.69 in ENE 0.9 mph 2.0 mph 26% 0.00 in 0.0 W/m2
02:29 67.1 °F 31.1 °F 29.69 in Calm   2.0 mph 26% 0.00 in 0.0 W/m2
02:34 67.1 °F 31.1 °F 29.69 in Calm   3.0 mph 26% 0.00 in 0.0 W/m2
02:40 67.1 °F 31.1 °F 29.69 in Calm   2.0 mph 26% 0.00 in 0.0 W/m2
02:45 67.3 °F 31.3 °F 29.69 in Calm   2.0 mph 26% 0.00 in 0.0 W/m2
02:50 67.3 °F 31.3 °F 29.70 in ENE 0.9 mph 5.0 mph 26% 0.00 in 0.0 W/m2
02:56 67.3 °F 32.2 °F 29.70 in Calm   1.0 mph 27% 0.00 in 0.0 W/m2
03:01 67.3 °F 31.3 °F 29.69 in Calm     26% 0.00 in 0.0 W/m2
03:06 66.9 °F 31.8 °F 29.68 in Calm     27% 0.00 in 0.0 W/m2
03:12 66.7 °F 31.6 °F 29.68 in Calm   1.0 mph 27% 0.00 in 0.0 W/m2
03:17 66.6 °F 31.5 °F 29.68 in Calm     27% 0.00 in 0.0 W/m2
03:22 66.6 °F 31.5 °F 29.68 in Calm   1.0 mph 27% 0.00 in 0.0 W/m2
03:27 66.2 °F 32.2 °F 29.68 in Calm     28% 0.00 in 0.0 W/m2
03:32 65.8 °F 31.8 °F 29.67 in SSE 2.0 mph 3.0 mph 28% 0.00 in 0.0 W/m2
03:37 65.7 °F 31.6 °F 29.67 in Calm     28% 0.00 in 0.0 W/m2
03:42 65.5 °F 32.4 °F 29.68 in Calm     29% 0.00 in 0.0 W/m2
03:47 65.3 °F 32.2 °F 29.68 in Calm     29% 0.00 in 0.0 W/m2
03:53 64.9 °F 32.0 °F 29.67 in Calm     29% 0.00 in 0.0 W/m2
03:58 64.8 °F 31.8 °F 29.67 in Calm     29% 0.00 in 0.0 W/m2
04:04 64.6 °F 32.4 °F 29.67 in Calm     30% 0.00 in 0.0 W/m2
04:08 64.2 °F 32.9 °F 29.67 in Calm     31% 0.00 in 0.0 W/m2
04:13 64.0 °F 32.7 °F 29.67 in Calm     31% 0.00 in 0.0 W/m2
04:18 63.9 °F 32.7 °F 29.67 in Calm   1.0 mph 31% 0.00 in 0.0 W/m2
04:23 63.7 °F 32.5 °F 29.66 in Calm   1.0 mph 31% 0.00 in 0.0 W/m2
04:29 63.3 °F 31.3 °F 29.67 in Calm     30% 0.00 in 0.0 W/m2
04:35 63.1 °F 31.3 °F 29.66 in Calm     30% 0.00 in 0.0 W/m2
04:40 63.0 °F 31.8 °F 29.66 in Calm   2.0 mph 31% 0.00 in 0.0 W/m2
04:45 62.8 °F 31.6 °F 29.66 in Calm     31% 0.00 in 0.0 W/m2
04:50 62.8 °F 32.5 °F 29.66 in Calm   1.0 mph 32% 0.00 in 0.0 W/m2
04:55 62.6 °F 31.5 °F 29.66 in Calm   1.0 mph 31% 0.00 in 0.0 W/m2
05:00 62.4 °F 32.2 °F 29.66 in Calm   1.0 mph 32% 0.00 in 0.0 W/m2
05:05 62.4 °F 31.5 °F 29.66 in Calm   1.0 mph 31% 0.00 in 0.0 W/m2
05:10 62.2 °F 32.0 °F 29.66 in Calm   1.0 mph 32% 0.00 in 0.0 W/m2
05:16 62.1 °F 31.8 °F 29.65 in Calm   1.0 mph 32% 0.00 in 0.0 W/m2
05:21 62.1 °F 31.8 °F 29.66 in Calm   1.0 mph 32% 0.00 in 0.0 W/m2
05:26 61.9 °F 33.3 °F 29.66 in Calm     34% 0.00 in 0.0 W/m2
05:31 61.7 °F 33.1 °F 29.66 in Calm     34% 0.00 in 0.0 W/m2
05:36 61.5 °F 32.9 °F 29.66 in ESE 0.9 mph 1.0 mph 34% 0.00 in 0.0 W/m2
05:42 61.3 °F 32.0 °F 29.66 in Calm   1.0 mph 33% 0.00 in 0.0 W/m2
05:47 61.2 °F 32.5 °F 29.66 in Calm   1.0 mph 34% 0.00 in 0.0 W/m2
05:52 61.0 °F 32.4 °F 29.66 in ESE 0.9 mph 2.0 mph 34% 0.00 in 0.0 W/m2
05:57 61.0 °F 31.6 °F 29.66 in Calm   2.0 mph 33% 0.00 in 0.0 W/m2
06:02 61.0 °F 32.4 °F 29.66 in Calm   1.0 mph 34% 0.00 in 0.0 W/m2
06:07 60.8 °F 32.9 °F 29.67 in Calm   2.0 mph 35% 0.00 in 0.0 W/m2
06:12 60.6 °F 32.9 °F 29.66 in Calm     35% 0.00 in 0.0 W/m2
06:17 60.4 °F 32.0 °F 29.67 in Calm   1.0 mph 34% 0.00 in 0.0 W/m2
06:22 60.3 °F 31.8 °F 29.67 in Calm   3.0 mph 34% 0.00 in 0.0 W/m2
06:27 60.3 °F 32.5 °F 29.67 in Calm   2.0 mph 35% 0.00 in 0.0 W/m2
06:32 60.3 °F 31.8 °F 29.67 in Calm   2.0 mph 34% 0.00 in 0.0 W/m2
06:38 60.3 °F 32.5 °F 29.67 in Calm   1.0 mph 35% 0.00 in 5.0 W/m2
06:43 60.3 °F 32.5 °F 29.67 in Calm     35% 0.00 in 9.0 W/m2
06:49 60.3 °F 31.8 °F 29.67 in Calm   3.0 mph 34% 0.00 in 11.0 W/m2
06:54 60.3 °F 32.5 °F 29.67 in East 2.0 mph 4.0 mph 35% 0.00 in 12.0 W/m2
06:59 60.3 °F 32.5 °F 29.67 in Calm   2.0 mph 35% 0.00 in 14.0 W/m2
07:04 60.3 °F 31.8 °F 29.67 in Calm   4.0 mph 34% 0.00 in 16.0 W/m2
07:09 60.6 °F 33.4 °F 29.67 in Calm     36% 0.00 in 18.0 W/m2
07:14 60.8 °F 32.9 °F 29.67 in Calm   1.0 mph 35% 0.00 in 19.0 W/m2
07:19 61.2 °F 33.3 °F 29.67 in Calm   1.0 mph 35% 0.00 in 19.0 W/m2
07:25 61.5 °F 32.9 °F 29.67 in NNE 0.9 mph 1.0 mph 34% 0.00 in 21.0 W/m2
07:30 61.9 °F 33.3 °F 29.67 in Calm   1.0 mph 34% 0.00 in 23.0 W/m2
07:35 62.1 °F 33.4 °F 29.68 in Calm   4.0 mph 34% 0.00 in 25.0 W/m2
07:40 62.6 °F 34.5 °F 29.68 in Calm     35% 0.00 in 26.0 W/m2
07:45 63.0 °F 34.2 °F 29.68 in NE 0.9 mph 1.0 mph 34% 0.00 in 28.0 W/m2
07:50 63.3 °F 34.5 °F 29.68 in Calm     34% 0.00 in 33.0 W/m2
07:55 64.0 °F 33.6 °F 29.68 in Calm   1.0 mph 32% 0.00 in 40.0 W/m2
08:00 64.8 °F 34.2 °F 29.68 in Calm     32% 0.00 in 171.0 W/m2
08:05 65.5 °F 34.0 °F 29.67 in Calm   1.0 mph 31% 0.00 in 236.0 W/m2
08:10 66.2 °F 33.1 °F 29.68 in Calm     29% 0.00 in 346.0 W/m2
08:16 66.9 °F 32.7 °F 29.68 in Calm     28% 0.00 in 373.0 W/m2
08:21 67.8 °F 32.5 °F 29.68 in Calm   1.0 mph 27% 0.00 in 394.0 W/m2
08:26 68.7 °F 32.4 °F 29.68 in Calm   1.0 mph 26% 0.00 in 420.0 W/m2
08:31 70.0 °F 33.4 °F 29.68 in Calm   3.0 mph 26% 0.00 in 438.0 W/m2
08:36 71.8 °F 33.1 °F 29.68 in North 0.9 mph 1.0 mph 24% 0.00 in 459.0 W/m2
08:41 73.8 °F 34.7 °F 29.68 in Calm   1.0 mph 24% 0.00 in 482.0 W/m2
08:46 75.4 °F 32.7 °F 29.68 in Calm     21% 0.00 in 503.0 W/m2
08:51 76.3 °F 32.2 °F 29.68 in Calm   1.0 mph 20% 0.00 in 520.0 W/m2
08:57 77.4 °F 33.1 °F 29.68 in Calm   2.0 mph 20% 0.00 in 540.0 W/m2
09:02 78.4 °F 31.5 °F 29.68 in NNW 0.9 mph 3.0 mph 18% 0.00 in 563.0 W/m2
09:07 79.3 °F 33.4 °F 29.68 in Calm   2.0 mph 19% 0.00 in 578.0 W/m2
09:12 80.2 °F 32.9 °F 29.68 in Calm   2.0 mph 18% 0.00 in 584.0 W/m2
09:17 81.1 °F 33.6 °F 29.69 in Calm   3.0 mph 18% 0.00 in 608.0 W/m2
09:22 81.9 °F 34.2 °F 29.68 in NW 2.0 mph 3.0 mph 18% 0.00 in 633.0 W/m2
09:27 82.8 °F 33.4 °F 29.68 in South 2.0 mph 5.0 mph 17% 0.00 in 647.0 W/m2
09:32 83.1 °F 33.8 °F 29.68 in North 2.0 mph 3.0 mph 17% 0.00 in 671.0 W/m2
09:37 83.8 °F 32.9 °F 29.68 in NNE 6.9 mph 7.0 mph 16% 0.00 in 677.0 W/m2
09:42 84.0 °F 33.1 °F 29.68 in North 0.9 mph 5.0 mph 16% 0.00 in 687.0 W/m2
09:48 84.6 °F 33.4 °F 29.68 in NNE 0.9 mph 4.0 mph 16% 0.00 in 726.0 W/m2
09:53 85.3 °F 32.4 °F 29.68 in NNW 2.9 mph 4.0 mph 15% 0.00 in 744.0 W/m2
09:58 85.5 °F 30.9 °F 29.68 in North 2.9 mph 4.0 mph 14% 0.00 in 761.0 W/m2
10:03 85.8 °F 31.1 °F 29.68 in Calm   2.0 mph 14% 0.00 in 779.0 W/m2
10:08 86.2 °F 31.5 °F 29.68 in ESE 2.0 mph 3.0 mph 14% 0.00 in 789.0 W/m2
10:13 86.5 °F 31.6 °F 29.68 in Calm   6.0 mph 14% 0.00 in 809.0 W/m2
10:18 86.5 °F 29.8 °F 29.68 in ESE 2.9 mph 5.0 mph 13% 0.00 in 823.0 W/m2
10:22 86.5 °F 29.8 °F 29.68 in North 2.9 mph 8.0 mph 13% 0.00 in 835.0 W/m2
10:27 87.1 °F 30.2 °F 29.68 in NNE 2.0 mph 7.0 mph 13% 0.00 in 847.0 W/m2
10:32 87.4 °F 30.6 °F 29.69 in Calm   9.0 mph 13% 0.00 in 867.0 W/m2
10:37 87.6 °F 30.7 °F 29.68 in Calm   5.0 mph 13% 0.00 in 872.0 W/m2
10:42 88.0 °F 28.9 °F 29.68 in WNW 2.0 mph 7.0 mph 12% 0.00 in 888.0 W/m2
10:47 88.0 °F 28.9 °F 29.68 in Calm   3.0 mph 12% 0.00 in 902.0 W/m2
10:53 88.3 °F 29.3 °F 29.68 in West 0.9 mph 8.0 mph 12% 0.00 in 916.0 W/m2
10:58 88.5 °F 31.5 °F 29.67 in SE 6.0 mph 6.0 mph 13% 0.00 in 925.0 W/m2
11:03 88.2 °F 31.1 °F 29.67 in NNE 2.0 mph 7.0 mph 13% 0.00 in 939.0 W/m2
11:08 88.2 °F 31.1 °F 29.67 in North 2.0 mph 8.0 mph 13% 0.00 in 951.0 W/m2
11:12 88.5 °F 29.5 °F 29.67 in East 2.9 mph 7.0 mph 12% 0.00 in 965.0 W/m2
11:13 88.5 °F 31.5 °F 29.67 in ESE 6.9 mph 8.0 mph 13% 0.00 in 965.0 W/m2
11:19 88.9 °F 29.7 °F 29.67 in West 6.0 mph 7.0 mph 12% 0.00 in 977.0 W/m2
11:24 88.0 °F 28.9 °F 29.67 in West 6.0 mph 9.0 mph 12% 0.00 in 986.0 W/m2
11:29 87.6 °F 30.7 °F 29.67 in ESE 2.0 mph 6.0 mph 13% 0.00 in 993.0 W/m2
11:35 88.0 °F 30.9 °F 29.67 in SW 2.9 mph 6.0 mph 13% 0.00 in 1002.0 W/m2
11:40 87.4 °F 30.6 °F 29.66 in Calm   2.0 mph 13% 0.00 in 1009.0 W/m2
11:45 87.4 °F 30.6 °F 29.66 in West 4.9 mph 5.0 mph 13% 0.00 in 1016.0 W/m2
11:50 88.2 °F 31.1 °F 29.66 in SW 0.9 mph 2.0 mph 13% 0.00 in 1023.0 W/m2
11:55 88.5 °F 31.5 °F 29.66 in SSW 0.9 mph 5.0 mph 13% 0.00 in 1032.0 W/m2
12:00 88.3 °F 31.3 °F 29.65 in SSW 6.9 mph 8.0 mph 13% 0.00 in 1037.0 W/m2
12:05 88.3 °F 33.1 °F 29.65 in South 4.9 mph 8.0 mph 14% 0.00 in 1039.0 W/m2
12:10 88.3 °F 31.3 °F 29.65 in SSE 2.9 mph 6.0 mph 13% 0.00 in 1046.0 W/m2
12:15 88.9 °F 31.6 °F 29.65 in ESE 4.0 mph 9.0 mph 13% 0.00 in 1049.0 W/m2
12:20 89.2 °F 30.0 °F 29.65 in SW 0.9 mph 6.0 mph 12% 0.00 in 1053.0 W/m2
12:26 89.1 °F 31.8 °F 29.65 in SW 6.0 mph 6.0 mph 13% 0.00 in 1053.0 W/m2
12:31 89.2 °F 32.0 °F 29.65 in SW 4.0 mph 10.0 mph 13% 0.00 in 1060.0 W/m2
12:36 89.8 °F 30.4 °F 29.65 in North 2.9 mph 6.0 mph 12% 0.00 in 1062.0 W/m2
12:41 90.3 °F 32.9 °F 29.64 in West 0.9 mph 9.0 mph 13% 0.00 in 1063.0 W/m2
12:46 91.0 °F 33.4 °F 29.64 in West 2.9 mph 4.0 mph 13% 0.00 in 1063.0 W/m2
12:51 91.6 °F 31.8 °F 29.64 in Calm   5.0 mph 12% 0.00 in 1069.0 W/m2
12:56 91.9 °F 32.0 °F 29.63 in Calm   1.0 mph 12% 0.00 in 1065.0 W/m2
13:01 92.7 °F 32.7 °F 29.63 in WSW 4.0 mph 8.0 mph 12% 0.00 in 1067.0 W/m2
13:07 92.7 °F 30.6 °F 29.63 in NNW 2.0 mph 5.0 mph 11% 0.00 in 1065.0 W/m2
13:12 92.3 °F 32.4 °F 29.63 in WSW 2.9 mph 10.0 mph 12% 0.00 in 1062.0 W/m2
13:18 91.9 °F 32.0 °F 29.63 in North 0.9 mph 3.0 mph 12% 0.00 in 1067.0 W/m2
13:23 92.1 °F 32.2 °F 29.62 in WSW 0.9 mph 5.0 mph 12% 0.00 in 1065.0 W/m2
13:28 92.1 °F 32.2 °F 29.62 in WSW 4.0 mph 7.0 mph 12% 0.00 in 1063.0 W/m2
13:33 92.3 °F 32.4 °F 29.62 in Calm   3.0 mph 12% 0.00 in 1055.0 W/m2
13:38 92.8 °F 32.7 °F 29.62 in WNW 2.9 mph 7.0 mph 12% 0.00 in 1055.0 W/m2
13:43 93.0 °F 32.9 °F 29.62 in NNW 4.0 mph 7.0 mph 12% 0.00 in 1048.0 W/m2
13:48 93.7 °F 33.4 °F 29.61 in NW 6.9 mph 11.0 mph 12% 0.00 in 1042.0 W/m2
13:54 94.1 °F 31.6 °F 29.61 in NNW 4.9 mph 12.0 mph 11% 0.00 in 1037.0 W/m2
13:59 93.9 °F 31.5 °F 29.61 in NNW 6.0 mph 9.0 mph 11% 0.00 in 1030.0 W/m2
14:04 93.9 °F 31.5 °F 29.61 in North 2.0 mph 5.0 mph 11% 0.00 in 1025.0 W/m2
14:09 94.3 °F 31.6 °F 29.61 in WNW 9.0 mph 9.0 mph 11% 0.00 in 1023.0 W/m2
14:14 94.3 °F 31.6 °F 29.60 in Calm   1.0 mph 11% 0.00 in 1018.0 W/m2
14:19 94.8 °F 32.2 °F 29.60 in North 4.0 mph 7.0 mph 11% 0.00 in 1007.0 W/m2
14:24 95.4 °F 32.5 °F 29.60 in West 2.9 mph 8.0 mph 11% 0.00 in 1002.0 W/m2
14:29 95.5 °F 32.7 °F 29.59 in WSW 2.0 mph 5.0 mph 11% 0.00 in 960.0 W/m2
14:35 94.8 °F 32.2 °F 29.59 in West 8.1 mph 8.1 mph 11% 0.00 in 1018.0 W/m2
14:40 94.5 °F 31.8 °F 29.59 in SW 2.0 mph 6.0 mph 11% 0.00 in 990.0 W/m2
14:45 94.1 °F 31.6 °F 29.59 in South 6.0 mph 8.0 mph 11% 0.00 in 988.0 W/m2
14:50 94.3 °F 31.6 °F 29.59 in ESE 2.0 mph 7.0 mph 11% 0.00 in 1020.0 W/m2
14:55 94.6 °F 32.0 °F 29.58 in ESE 4.0 mph 6.0 mph 11% 0.00 in 1055.0 W/m2
15:00 95.0 °F 32.2 °F 29.58 in Calm   6.0 mph 11% 0.00 in 1020.0 W/m2
15:05 95.2 °F 32.4 °F 29.57 in WNW 2.9 mph 7.0 mph 11% 0.00 in 1035.0 W/m2
15:10 95.7 °F 32.9 °F 29.57 in WNW 4.0 mph 7.0 mph 11% 0.00 in 1018.0 W/m2
15:15 95.5 °F 32.7 °F 29.57 in West 6.9 mph 11.0 mph 11% 0.00 in 221.0 W/m2
15:20 94.5 °F 34.0 °F 29.57 in WNW 2.0 mph 5.0 mph 12% 0.00 in 657.0 W/m2
15:26 94.1 °F 33.8 °F 29.57 in WNW 2.0 mph 5.0 mph 12% 0.00 in 318.0 W/m2
15:31 93.7 °F 33.4 °F 29.56 in SSE 4.9 mph 6.0 mph 12% 0.00 in 327.0 W/m2
15:36 93.6 °F 33.3 °F 29.56 in Calm   2.0 mph 12% 0.00 in 294.0 W/m2
15:41 93.4 °F 33.3 °F 29.56 in WNW 4.0 mph 7.0 mph 12% 0.00 in 345.0 W/m2
15:46 93.0 °F 32.9 °F 29.55 in West 0.9 mph 10.0 mph 12% 0.00 in 448.0 W/m2
15:51 93.2 °F 33.1 °F 29.55 in North 2.0 mph 3.0 mph 12% 0.00 in 283.0 W/m2
15:56 93.7 °F 33.4 °F 29.55 in WSW 2.0 mph 6.0 mph 12% 0.00 in 415.0 W/m2
16:01 93.9 °F 33.6 °F 29.54 in WSW 2.0 mph 8.0 mph 12% 0.00 in 209.0 W/m2
16:06 93.9 °F 33.6 °F 29.55 in WNW 2.0 mph 5.0 mph 12% 0.00 in 272.0 W/m2
16:12 93.7 °F 33.4 °F 29.54 in WSW 2.0 mph 5.0 mph 12% 0.00 in 220.0 W/m2
16:18 93.7 °F 33.4 °F 29.54 in SSE 2.0 mph 3.0 mph 12% 0.00 in 893.0 W/m2
16:23 94.6 °F 32.0 °F 29.54 in West 4.9 mph 5.0 mph 11% 0.00 in 891.0 W/m2
16:28 94.6 °F 32.0 °F 29.54 in NNE 0.9 mph 5.0 mph 11% 0.00 in 264.0 W/m2
16:33 94.3 °F 31.6 °F 29.54 in Calm   3.0 mph 11% 0.00 in 758.0 W/m2
16:38 94.6 °F 34.2 °F 29.53 in SSE 4.9 mph 5.0 mph 12% 0.00 in 817.0 W/m2
16:43 95.2 °F 32.4 °F 29.53 in SW 0.9 mph 3.0 mph 11% 0.00 in 243.0 W/m2
16:48 94.8 °F 32.2 °F 29.53 in West 2.0 mph 4.0 mph 11% 0.00 in 577.0 W/m2
16:53 95.2 °F 32.4 °F 29.53 in West 2.9 mph 8.0 mph 11% 0.00 in 248.0 W/m2
16:58 95.0 °F 32.2 °F 29.53 in West 4.9 mph 6.0 mph 11% 0.00 in 401.0 W/m2
17:03 95.2 °F 32.4 °F 29.53 in East 0.9 mph 1.0 mph 11% 0.00 in 675.0 W/m2
17:09 95.5 °F 32.7 °F 29.52 in SW 2.0 mph 4.0 mph 11% 0.00 in 146.0 W/m2
17:14 94.8 °F 32.2 °F 29.52 in Calm   7.0 mph 11% 0.00 in 148.0 W/m2
17:19 93.7 °F 31.3 °F 29.52 in WSW 2.0 mph 6.0 mph 11% 0.00 in 137.0 W/m2
17:24 92.8 °F 32.7 °F 29.52 in Calm   3.0 mph 12% 0.00 in 125.0 W/m2
17:29 92.5 °F 32.5 °F 29.52 in West 0.9 mph 2.0 mph 12% 0.00 in 350.0 W/m2
17:35 92.8 °F 30.6 °F 29.52 in Calm   3.0 mph 11% 0.00 in 534.0 W/m2
17:40 93.6 °F 28.8 °F 29.52 in SW 2.0 mph 6.0 mph 10% 0.00 in 489.0 W/m2
17:45 94.1 °F 29.3 °F 29.52 in Calm   6.0 mph 10% 0.00 in 441.0 W/m2
17:50 94.5 °F 29.5 °F 29.51 in South 2.9 mph 4.0 mph 10% 0.00 in 401.0 W/m2
17:55 94.5 °F 24.1 °F 29.52 in WSW 11.0 mph 11.0 mph 8% 0.00 in 378.0 W/m2
18:01 93.7 °F 20.5 °F 29.52 in West 11.0 mph 16.0 mph 7% 0.00 in 352.0 W/m2
18:06 93.0 °F 19.9 °F 29.52 in SW 6.0 mph 15.0 mph 7% 0.00 in 323.0 W/m2
18:11 92.3 °F 19.4 °F 29.52 in West 6.9 mph 11.0 mph 7% 0.00 in 306.0 W/m2
18:16 91.6 °F 18.9 °F 29.53 in WSW 2.0 mph 15.0 mph 7% 0.00 in 283.0 W/m2
18:21 91.6 °F 18.9 °F 29.53 in WSW 6.9 mph 13.0 mph 7% 0.00 in 258.0 W/m2
18:26 91.2 °F 18.5 °F 29.54 in SSW 10.1 mph 13.0 mph 7% 0.00 in 237.0 W/m2
18:31 90.5 °F 18.1 °F 29.54 in WSW 4.9 mph 12.0 mph 7% 0.00 in 216.0 W/m2
18:36 90.0 °F 17.6 °F 29.54 in WSW 4.0 mph 10.0 mph 7% 0.00 in 197.0 W/m2
18:42 89.8 °F 20.7 °F 29.54 in SW 10.1 mph 10.1 mph 8% 0.00 in 179.0 W/m2
18:47 89.4 °F 17.2 °F 29.54 in SW 2.0 mph 9.0 mph 7% 0.00 in 155.0 W/m2
18:52 88.9 °F 19.9 °F 29.54 in West 8.9 mph 11.0 mph 8% 0.00 in 70.0 W/m2
18:57 88.2 °F 19.4 °F 29.55 in West 6.0 mph 9.0 mph 8% 0.00 in 39.0 W/m2
19:02 87.4 °F 21.7 °F 29.56 in SSE 6.9 mph 19.0 mph 9% 0.00 in 39.0 W/m2
19:07 86.7 °F 23.7 °F 29.56 in SW 8.1 mph 14.0 mph 10% 0.00 in 26.0 W/m2
19:12 86.2 °F 25.5 °F 29.56 in West 6.0 mph 13.0 mph 11% 0.00 in 23.0 W/m2
19:17 85.6 °F 25.2 °F 29.57 in South 2.0 mph 7.0 mph 11% 0.00 in 18.0 W/m2
19:22 85.1 °F 26.8 °F 29.57 in SSW 6.0 mph 11.0 mph 12% 0.00 in 12.0 W/m2
19:27 84.4 °F 28.2 °F 29.57 in SSW 2.9 mph 8.0 mph 13% 0.00 in 11.0 W/m2
19:33 83.8 °F 27.7 °F 29.57 in SSW 4.9 mph 7.0 mph 13% 0.00 in 7.0 W/m2
19:38 83.5 °F 27.5 °F 29.58 in WSW 2.9 mph 5.0 mph 13% 0.00 in 5.0 W/m2
19:43 82.9 °F 28.8 °F 29.58 in WSW 0.9 mph 8.0 mph 14% 0.00 in 0.0 W/m2
19:48 82.8 °F 28.8 °F 29.58 in SW 4.0 mph 7.0 mph 14% 0.00 in 0.0 W/m2
19:53 82.6 °F 30.2 °F 29.59 in SW 2.9 mph 6.0 mph 15% 0.00 in 0.0 W/m2
19:58 82.2 °F 31.6 °F 29.59 in WSW 4.0 mph 9.0 mph 16% 0.00 in 0.0 W/m2
20:03 81.9 °F 31.3 °F 29.58 in Calm   9.0 mph 16% 0.00 in 0.0 W/m2
20:08 81.5 °F 32.5 °F 29.59 in West 2.9 mph 5.0 mph 17% 0.00 in 0.0 W/m2
20:13 81.1 °F 33.6 °F 29.59 in WSW 0.9 mph 7.0 mph 18% 0.00 in 0.0 W/m2
20:19 80.8 °F 33.3 °F 29.59 in Calm   2.0 mph 18% 0.00 in 0.0 W/m2
20:24 80.4 °F 33.1 °F 29.59 in WSW 2.9 mph 7.0 mph 18% 0.00 in 0.0 W/m2
20:29 80.1 °F 34.2 °F 29.59 in SW 2.0 mph 7.0 mph 19% 0.00 in 0.0 W/m2
20:34 79.9 °F 34.0 °F 29.60 in SSW 0.9 mph 1.0 mph 19% 0.00 in 0.0 W/m2
20:39 79.5 °F 33.6 °F 29.60 in Calm   1.0 mph 19% 0.00 in 0.0 W/m2
20:44 79.3 °F 33.4 °F 29.60 in Calm   5.0 mph 19% 0.00 in 0.0 W/m2
20:49 79.2 °F 34.7 °F 29.60 in SSW 2.9 mph 3.0 mph 20% 0.00 in 0.0 W/m2
20:54 79.0 °F 34.5 °F 29.60 in SSW 2.0 mph 6.0 mph 20% 0.00 in 0.0 W/m2
21:00 78.6 °F 34.2 °F 29.60 in WSW 0.9 mph 3.0 mph 20% 0.00 in 0.0 W/m2
21:05 78.4 °F 35.2 °F 29.60 in Calm   1.0 mph 21% 0.00 in 0.0 W/m2
21:10 78.3 °F 35.1 °F 29.60 in West 2.0 mph 5.0 mph 21% 0.00 in 0.0 W/m2
21:15 78.1 °F 34.9 °F 29.60 in Calm   6.0 mph 21% 0.00 in 0.0 W/m2
21:20 77.7 °F 34.7 °F 29.60 in SW 0.9 mph 5.0 mph 21% 0.00 in 0.0 W/m2
21:25 77.5 °F 34.5 °F 29.60 in West 0.9 mph 6.0 mph 21% 0.00 in 0.0 W/m2
21:30 77.4 °F 34.3 °F 29.61 in Calm   1.0 mph 21% 0.00 in 0.0 W/m2
21:35 77.4 °F 34.3 °F 29.61 in Calm   2.0 mph 21% 0.00 in 0.0 W/m2
21:40 77.2 °F 34.2 °F 29.61 in SSE 4.0 mph 4.0 mph 21% 0.00 in 0.0 W/m2
21:46 77.0 °F 34.2 °F 29.61 in WSW 2.0 mph 5.0 mph 21% 0.00 in 0.0 W/m2
21:51 76.8 °F 34.0 °F 29.61 in Calm   1.0 mph 21% 0.00 in 0.0 W/m2
21:56 76.8 °F 35.1 °F 29.61 in Calm   1.0 mph 22% 0.00 in 0.0 W/m2
22:01 76.5 °F 34.9 °F 29.62 in SSW 0.9 mph 2.0 mph 22% 0.00 in 0.0 W/m2
22:06 76.5 °F 34.9 °F 29.62 in SW 2.0 mph 8.0 mph 22% 0.00 in 0.0 W/m2
22:11 76.6 °F 34.9 °F 29.62 in SSE 2.9 mph 11.0 mph 22% 0.00 in 0.0 W/m2
22:16 76.8 °F 34.0 °F 29.62 in SW 0.9 mph 5.0 mph 21% 0.00 in 0.0 W/m2
22:21 76.8 °F 34.0 °F 29.62 in West 2.0 mph 5.0 mph 21% 0.00 in 0.0 W/m2
22:26 77.0 °F 34.2 °F 29.62 in West 4.9 mph 5.0 mph 21% 0.00 in 0.0 W/m2
22:32 77.0 °F 34.2 °F 29.62 in Calm   6.0 mph 21% 0.00 in 0.0 W/m2
22:37 77.0 °F 34.2 °F 29.63 in South 2.0 mph 2.0 mph 21% 0.00 in 0.0 W/m2
22:42 76.8 °F 35.1 °F 29.62 in SE 0.9 mph 2.0 mph 22% 0.00 in 0.0 W/m2
22:47 76.8 °F 35.1 °F 29.63 in Calm   1.0 mph 22% 0.00 in 0.0 W/m2
22:50 76.6 °F 34.9 °F 29.63 in SE 0.9 mph 2.0 mph 22% 0.00 in 0.0 W/m2
22:55 76.5 °F 34.9 °F 29.63 in SW 2.0 mph 2.0 mph 22% 0.00 in 0.0 W/m2
23:00 76.3 °F 35.8 °F 29.63 in Calm   1.0 mph 23% 0.00 in 0.0 W/m2
23:05 76.1 °F 34.5 °F 29.63 in ESE 2.0 mph 3.0 mph 22% 0.00 in 0.0 W/m2
23:10 75.7 °F 34.2 °F 29.63 in SSE 2.0 mph 3.0 mph 22% 0.00 in 0.0 W/m2
23:15 75.6 °F 34.0 °F 29.63 in Calm   4.0 mph 22% 0.00 in 0.0 W/m2
23:20 75.4 °F 35.1 °F 29.63 in SSE 2.9 mph 4.0 mph 23% 0.00 in 0.0 W/m2
23:25 75.0 °F 34.7 °F 29.63 in South 0.9 mph 6.0 mph 23% 0.00 in 0.0 W/m2
23:30 74.8 °F 34.5 °F 29.63 in SSE 4.0 mph 9.0 mph 23% 0.00 in 0.0 W/m2
23:36 74.7 °F 34.3 °F 29.63 in South 2.0 mph 4.0 mph 23% 0.00 in 0.0 W/m2
23:41 74.7 °F 34.3 °F 29.63 in Calm   2.0 mph 23% 0.00 in 0.0 W/m2
23:46 74.5 °F 34.3 °F 29.63 in Calm   2.0 mph 23% 0.00 in 0.0 W/m2
23:52 74.1 °F 35.1 °F 29.63 in Calm     24% 0.00 in 0.0 W/m2
23:57 73.9 °F 34.9 °F 29.63 in Calm   1.0 mph 24% 0.00 in 0.0 W/m2
Olympia, Windhoek, Namibia
Compliments of Weather Underground - 3.25 mb